[[[{"header":{"parameterUnit":"kt","parameterCategory":2,"dx":1,"dy":1,"la1":30.253999710083008,"la2":30.299108505249023,"lo1":-89.0895004272461,"lo2":-89.04439544677734,"nx":28,"ny":28,"refTime":"2022-10-31T21:00:00:Z","depth":0,"parameterNumber":1,"parameterNumberName":"U-component_of_WINDS"},"data":[1.718,1.7234,1.7197,1.7245,1.7219,1.7246,1.7244,1.7238,1.7224,1.7253,1.7264,1.7234,1.7208,1.7214,1.7225,1.7212,1.722,1.7266,1.7243,1.7065,1.7038,1.7012,1.6995,1.7269,1.7269,1.7432,1.7434,1.7435,1.7054,1.7029,1.7043,1.7031,1.7042,1.6975,1.6961,1.6976,1.7002,1.6986,1.6994,1.7018,1.7032,1.6989,1.6998,1.7025,1.6995,1.703,1.7027,1.7025,1.6833,1.6815,1.7055,1.7055,1.7055,1.7055,1.7055,1.7054,1.6816,1.685,1.682,1.6834,1.6818,1.6811,1.6838,1.6799,1.6813,1.6815,1.6769,1.6799,1.6776,1.6768,1.6757,1.6781,1.6735,1.6763,1.677,1.6778,1.6792,1.6562,1.6781,1.678,1.6779,1.6779,1.6778,0,1.6629,1.6595,1.6604,1.6604,1.6612,1.6608,1.6598,1.6615,1.6531,1.6547,1.6566,1.6572,1.6584,1.6599,1.6599,1.6581,1.6514,1.6503,1.6523,1.6545,1.6566,1.6556,1.6245,1.6497,1.6495,1.6493,1.6492,1.649,1.6386,1.643,1.638,1.6392,1.6376,1.6398,1.6403,1.6325,1.6334,1.6312,1.6348,1.6362,1.6369,1.6409,1.6365,1.6375,1.6342,1.6442,1.6343,1.6363,1.6344,1.6342,1.6346,1.6463,1.6467,1.647,1.6472,0,1.6253,1.6189,1.6245,1.6191,1.6178,1.623,1.6184,1.6217,1.6174,1.6214,1.6218,1.6153,1.6175,1.6113,1.6126,1.6093,1.6182,1.615,1.6189,1.6179,1.6263,1.6256,1.6545,1.6579,1.6294,1.6297,1.6299,0,1.602,1.6082,1.5983,1.6019,1.6085,1.6003,1.6072,1.6042,1.6019,1.6049,1.596,1.5991,1.5906,1.5929,1.588,1.5941,1.5944,1.5923,1.5909,1.593,1.5933,1.5935,1.5922,1.5876,1.5875,1.5873,1.5872,0,1.5818,1.5836,1.5894,1.5889,1.5836,1.5866,1.5847,1.5819,1.5825,1.5824,1.5827,1.5832,1.5835,1.5842,1.5779,1.5714,1.5852,1.575,1.583,1.5832,1.5864,1.5863,1.6134,1.5871,1.587,1.587,1.5869,0,1.5619,1.5615,1.5709,1.5663,1.5671,1.5711,1.5707,1.5726,1.5704,1.5674,1.5673,1.5606,1.5653,1.5556,1.5621,1.5553,1.5562,1.5546,1.555,1.5551,1.5444,1.5605,1.5869,1.5894,1.5552,1.5549,1.5547,0,1.5405,1.5482,1.541,1.5502,1.5528,1.5424,1.5467,1.5449,1.5412,1.5431,1.5392,1.5415,1.5329,1.5327,1.5368,1.5329,1.5416,1.5315,1.5347,1.5349,1.5356,1.5598,1.5652,1.5818,1.5512,1.5516,1.5518,0,1.5231,1.5163,1.5184,1.5173,1.5133,1.5155,1.5204,1.5207,1.5223,1.5212,1.5252,1.5283,1.5219,1.5218,1.5164,1.5209,1.5355,1.5135,1.5133,1.5177,1.5489,1.5541,1.5569,1.5309,1.5313,1.5317,1.5491,0,1.4946,1.4975,1.5029,1.5007,1.5014,1.5067,1.4995,1.5012,1.4957,1.4917,1.4975,1.4944,1.4949,1.4964,1.4912,1.5035,1.5004,1.4936,1.4837,1.4997,1.5052,1.5075,1.476,1.4756,1.4754,1.4751,0,0,1.4758,1.4796,1.4715,1.4757,1.4757,1.4646,1.471,1.4698,1.4677,1.468,1.4624,1.4663,1.4641,1.4719,1.4763,1.4765,1.4781,1.4728,1.4921,1.4941,1.4958,1.5019,1.5044,1.4746,1.4745,1.4744,1.4744,0,1.4637,1.4611,1.4673,1.4656,1.4627,1.4579,1.4595,1.4547,1.4524,1.4579,1.4489,1.4515,1.4549,1.4537,1.4535,1.4716,1.4648,1.4724,1.4844,1.4895,1.4918,1.4938,1.5003,1.5028,1.4737,1.4737,1.4737,0,1.4452,1.4415,1.4437,1.4429,1.4409,1.4439,1.4317,1.4354,1.4375,1.4255,1.4311,1.4285,1.4263,1.4345,1.4379,1.4329,1.4531,1.4455,1.4471,1.4473,1.452,1.4547,1.4572,1.4247,1.4246,1.4245,0,0,1.4359,1.4384,1.4319,1.4398,1.4392,1.4322,1.433,1.4276,1.4256,1.4249,1.4212,1.4198,1.4216,1.4231,1.4244,1.4345,1.4334,1.4397,1.442,1.444,1.4453,1.4504,1.4532,1.4239,1.4239,1.4239,0,0,1.4314,1.4241,1.4188,1.4269,1.4253,1.4195,1.4247,1.4182,1.4186,1.4172,1.4084,1.4077,1.4152,1.413,1.4066,1.4208,1.4111,1.4125,1.4219,1.4247,1.427,1.4274,1.3937,0,0,0,0,0,1.4153,1.4249,1.4202,1.4205,1.4195,1.4221,1.422,1.4147,1.408,1.4123,1.4082,1.4008,1.4077,1.4018,1.4024,1.4096,1.417,1.4182,1.4194,1.4338,1.4368,1.4394,0,0,0,0,0,0,1.4153,1.4157,1.4199,1.4147,1.4144,1.4217,1.4087,1.4069,1.4073,1.4058,1.4018,1.4006,1.3947,1.4011,1.4017,1.4087,1.3935,1.4174,1.4185,1.4194,1.4348,1.4373,1.4394,0,0,0,0,0,1.4153,1.4156,1.4159,1.4145,1.4143,1.407,1.4082,1.4067,1.4069,1.4006,1.3992,1.4014,1.3951,1.3951,1.4014,1.4086,1.393,1.3933,1.4181,1.4189,1.4197,1.4361,0,0,0,0,0,0,1.4153,1.4143,1.4157,1.4153,1.4102,1.4064,1.4055,1.4065,1.4015,1.4002,1.3997,1.3986,1.3955,1.3954,1.3955,1.409,1.3926,1.3929,1.393,1.4187,1.4194,1.42,0,0,0,0,0,0,1.4141,1.4141,1.4155,1.4105,1.4095,1.4059,1.4052,1.4095,1.4016,1.4009,1.3998,1.3993,1.3955,1.3957,1.3957,1.4028,1.3923,1.3926,1.3927,1.3929,1.4193,1.4198,0,0,0,0,0,0,1.414,1.414,1.4105,1.4098,1.4089,1.4046,1.4096,1.4091,1.397,1.4013,1.3958,1.3952,1.396,1.3958,1.396,1.403,1.4028,1.3923,1.3925,1.3926,1.3927,0,0,0,0,0,0,0,1.4139,1.4156,1.4176,1.4092,1.4084,1.4123,1.4122,1.4121,1.3969,1.3964,1.3959,1.3954,1.3909,1.3912,1.3914,1.4033,0,0,1.3923,1.3924,0,0,0,0,0,0,0,0,1.4154,1.4155,1.4176,1.4176,1.4175,1.4122,1.4122,1.4121,1.3968,1.3964,1.396,1.3956,1.391,1.3912,1.3914,0,0,0,0,0,0,0,0,0,0,0,0,0,0,0,1.4176,1.4176,0,1.4122,1.4122,1.4121,1.3968,1.3964,1.3961,1.3958,1.391,1.3912,1.3914,0,0,0,0,0,0,0,0,0,0,0,0,0,0,0,0,0,0,0,0,0,0,0,0,0,0,0,0,0,0,0,0,0,0,0,0,0,0,0,0,0,0,0,0,0,0,0,0,0,0,0,0,0,0,0,0,0,0,0,0,0,0,0,0,0,0,0,0,0]}],[{"header":{"parameterUnit":"kt","parameterCategory":2,"dx":1,"dy":1,"la1":30.253999710083008,"la2":30.299108505249023,"lo1":-89.0895004272461,"lo2":-89.04439544677734,"nx":28,"ny":28,"refTime":"2022-10-31T21:00:00:Z","depth":0,"parameterNumber":2,"parameterNumberName":"V-component_of_WINDS"},"data":[-1.7726,-1.7697,-1.7687,-1.765,-1.7635,-1.7608,-1.7595,-1.7577,-1.756,-1.7527,-1.7507,-1.7493,-1.7472,-1.7445,-1.7422,-1.7417,-1.7408,-1.7406,-1.74,-1.7417,-1.7419,-1.742,-1.7426,-1.7404,-1.7404,-1.7383,-1.7383,-1.7382,-1.7743,-1.7728,-1.7705,-1.7676,-1.7656,-1.7652,-1.7629,-1.7613,-1.7588,-1.7567,-1.7546,-1.7515,-1.749,-1.7469,-1.7443,-1.7429,-1.7425,-1.7423,-1.7423,-1.742,-1.7439,-1.7445,-1.7427,-1.7427,-1.7427,-1.7427,-1.7427,-1.7427,-1.7772,-1.7755,-1.7731,-1.7706,-1.7688,-1.7668,-1.765,-1.7634,-1.7611,-1.7582,-1.7573,-1.7545,-1.7522,-1.7484,-1.7468,-1.7447,-1.7447,-1.7441,-1.7439,-1.7437,-1.7438,-1.7471,-1.7442,-1.7442,-1.7442,-1.7442,-1.7442,0,-1.7789,-1.7782,-1.7758,-1.7732,-1.7713,-1.7691,-1.7669,-1.7658,-1.7637,-1.7619,-1.7592,-1.7574,-1.7539,-1.7512,-1.7485,-1.7469,-1.7462,-1.746,-1.7455,-1.7458,-1.7466,-1.7462,-1.7492,-1.746,-1.746,-1.746,-1.746,-1.746,-1.7818,-1.7798,-1.7767,-1.7752,-1.7737,-1.7713,-1.7696,-1.7679,-1.7662,-1.7632,-1.7618,-1.759,-1.7567,-1.7525,-1.7504,-1.7478,-1.7474,-1.7463,-1.747,-1.7475,-1.7473,-1.7475,-1.7473,-1.7461,-1.7461,-1.7461,-1.7461,0,-1.7835,-1.7816,-1.7782,-1.7752,-1.7745,-1.7725,-1.77,-1.7681,-1.7666,-1.7639,-1.7632,-1.7608,-1.7581,-1.7562,-1.7527,-1.7518,-1.7487,-1.7484,-1.7496,-1.7494,-1.7482,-1.7483,-1.7446,-1.7441,-1.7464,-1.7463,-1.7463,0,-1.7851,-1.7826,-1.7799,-1.7781,-1.7753,-1.7735,-1.7708,-1.7692,-1.767,-1.7648,-1.7636,-1.7616,-1.7594,-1.7572,-1.7558,-1.753,-1.7523,-1.7514,-1.751,-1.7514,-1.7516,-1.7504,-1.7505,-1.7503,-1.7503,-1.7503,-1.7504,0,-1.7878,-1.7834,-1.7804,-1.779,-1.7755,-1.7741,-1.7726,-1.77,-1.7683,-1.7658,-1.7647,-1.762,-1.7604,-1.7583,-1.7566,-1.7571,-1.753,-1.7534,-1.7521,-1.7521,-1.7511,-1.7512,-1.7486,-1.7504,-1.7504,-1.7504,-1.7504,0,-1.7887,-1.7862,-1.7821,-1.7791,-1.778,-1.7759,-1.7731,-1.7709,-1.7682,-1.7672,-1.7652,-1.7641,-1.7614,-1.7619,-1.7582,-1.7594,-1.758,-1.7568,-1.7567,-1.7562,-1.7568,-1.7555,-1.7533,-1.7529,-1.756,-1.7561,-1.7561,0,-1.7924,-1.7877,-1.786,-1.7821,-1.7796,-1.7784,-1.7761,-1.7737,-1.7721,-1.7698,-1.7681,-1.7654,-1.7653,-1.7642,-1.7626,-1.7606,-1.7591,-1.7608,-1.7575,-1.7574,-1.7582,-1.7561,-1.7562,-1.754,-1.7567,-1.7566,-1.7566,0,-1.795,-1.7905,-1.7899,-1.7883,-1.7848,-1.7826,-1.78,-1.7769,-1.7755,-1.7729,-1.7706,-1.7668,-1.7666,-1.7647,-1.7634,-1.7619,-1.7601,-1.7618,-1.7617,-1.7616,-1.7568,-1.7569,-1.7566,-1.7596,-1.7595,-1.7595,-1.7571,0,-1.7968,-1.7941,-1.7924,-1.7887,-1.7867,-1.784,-1.7818,-1.78,-1.779,-1.7773,-1.7739,-1.7713,-1.768,-1.767,-1.766,-1.763,-1.7632,-1.7629,-1.7631,-1.7618,-1.761,-1.7606,-1.7647,-1.7646,-1.7646,-1.7646,0,0,-1.8008,-1.7967,-1.7948,-1.7921,-1.7903,-1.7889,-1.7863,-1.7844,-1.7804,-1.7792,-1.7794,-1.7735,-1.7713,-1.7674,-1.7668,-1.7655,-1.7647,-1.7652,-1.7625,-1.7623,-1.762,-1.7612,-1.7608,-1.7646,-1.7646,-1.7646,-1.7646,0,-1.8009,-1.7987,-1.7961,-1.794,-1.7908,-1.7891,-1.7885,-1.785,-1.7838,-1.7804,-1.7792,-1.7768,-1.7721,-1.7699,-1.7682,-1.7657,-1.7648,-1.7649,-1.7643,-1.7625,-1.7623,-1.7621,-1.7612,-1.7609,-1.7646,-1.7646,-1.7646,0,-1.803,-1.8004,-1.7989,-1.7946,-1.7925,-1.7898,-1.7896,-1.7867,-1.7848,-1.7832,-1.7798,-1.778,-1.7749,-1.7714,-1.7698,-1.7698,-1.7651,-1.7661,-1.7661,-1.7658,-1.764,-1.7637,-1.7635,-1.7665,-1.7666,-1.7666,0,0,-1.8034,-1.8008,-1.7973,-1.7944,-1.7932,-1.7905,-1.7888,-1.7875,-1.7848,-1.7836,-1.7812,-1.7786,-1.7758,-1.774,-1.7712,-1.7678,-1.767,-1.7664,-1.7663,-1.7663,-1.766,-1.7641,-1.7639,-1.7666,-1.7666,-1.7666,0,0,-1.8035,-1.7994,-1.7988,-1.7952,-1.7926,-1.789,-1.7873,-1.7865,-1.7837,-1.7837,-1.7814,-1.7806,-1.7773,-1.7755,-1.7766,-1.7713,-1.7715,-1.7712,-1.7725,-1.7723,-1.7723,-1.7727,-1.7758,0,0,0,0,0,-1.8024,-1.8,-1.7995,-1.7985,-1.7929,-1.7893,-1.7886,-1.7866,-1.7869,-1.7856,-1.7835,-1.7826,-1.7757,-1.7766,-1.7757,-1.7744,-1.7674,-1.7673,-1.7672,-1.768,-1.7679,-1.7678,0,0,0,0,0,0,-1.802,-1.8008,-1.7995,-1.7958,-1.7946,-1.7894,-1.7894,-1.7888,-1.7869,-1.7868,-1.7831,-1.7825,-1.7807,-1.7769,-1.7761,-1.7749,-1.7761,-1.7674,-1.7673,-1.7672,-1.768,-1.7679,-1.7678,0,0,0,0,0,-1.8016,-1.8007,-1.7923,-1.7958,-1.7947,-1.7915,-1.7895,-1.7889,-1.7875,-1.7841,-1.7835,-1.7861,-1.7807,-1.7799,-1.7764,-1.7754,-1.7767,-1.7764,-1.7673,-1.7672,-1.7671,-1.7679,0,0,0,0,0,0,-1.8014,-1.8002,-1.792,-1.7916,-1.7966,-1.7918,-1.791,-1.7891,-1.7848,-1.7842,-1.787,-1.787,-1.7807,-1.7801,-1.7795,-1.7756,-1.7771,-1.7768,-1.7766,-1.7672,-1.7672,-1.7671,0,0,0,0,0,0,-1.8007,-1.7998,-1.7918,-1.7928,-1.7925,-1.792,-1.7913,-1.788,-1.7848,-1.788,-1.7878,-1.7871,-1.7817,-1.7802,-1.7797,-1.7747,-1.7774,-1.7772,-1.777,-1.7768,-1.7672,-1.7671,0,0,0,0,0,0,-1.8003,-1.7996,-1.7929,-1.7927,-1.7924,-1.7876,-1.7891,-1.7835,-1.7857,-1.7882,-1.7858,-1.7859,-1.7818,-1.7812,-1.7799,-1.7751,-1.7748,-1.7774,-1.7772,-1.7771,-1.777,0,0,0,0,0,0,0,-1.8,-1.8053,-1.7945,-1.7925,-1.7923,-1.7878,-1.7877,-1.7876,-1.7857,-1.7857,-1.7858,-1.7859,-1.7791,-1.7788,-1.7785,-1.7754,0,0,-1.7775,-1.7773,0,0,0,0,0,0,0,0,-1.8055,-1.8053,-1.7944,-1.7944,-1.7943,-1.7878,-1.7877,-1.7876,-1.7857,-1.7857,-1.7858,-1.7858,-1.779,-1.7788,-1.7785,0,0,0,0,0,0,0,0,0,0,0,0,0,0,0,-1.7944,-1.7944,0,-1.7878,-1.7877,-1.7876,-1.7857,-1.7857,-1.7858,-1.7858,-1.7789,-1.7787,-1.7785,0,0,0,0,0,0,0,0,0,0,0,0,0,0,0,0,0,0,0,0,0,0,0,0,0,0,0,0,0,0,0,0,0,0,0,0,0,0,0,0,0,0,0,0,0,0,0,0,0,0,0,0,0,0,0,0,0,0,0,0,0,0,0,0,0,0,0,0,0]}]]]